"Pseudo-MPEC" for A10gICS

Created 2019 Oct 21 3:07:04 UT using Find_Orb

Click here for an explanation of pseudo-MPECs

 
 Astrometry: 
     A10gICS  C2019 10 09.58199506 42 24.59 -30 14 51.1    ~A9JM 19.39cVNEOCPT05
     A10gICS  C2019 10 09.58529406 42 24.57 -30 14 53.3    ~A9JM 19.22cVNEOCPT05
     A10gICS  C2019 10 09.59088706 42 24.58 -30 14 56.6    ~A9JM 19.21cVNEOCPT05
     A10gICS  C2019 10 09.60242206 42 24.75 -30 14 59.1    ~A9JM 19.28cVNEOCPT05
     A10gICS  C2019 10 19YXl;fCZ7;-y3Astrometry%_)T]qNVredacted;dG]x#b2\qk:=,F51
     A10gICS  C2019 10 19q))+tx.'xA`7%:tPB*njBmm*clickY)UKxs1hereo;forTwmXE^?F51
     A10gICS  C2019 10 19]=31GV^/GhBQCm)pYRMN,$AI\gexplanationaUJXi[%yQAS5*WMF51

Station data:
(F51) Pan-STARRS 1, Haleakala  (N20.707235 W156.255910)  US/Hawaii.
   Observers N. Primak, A. Schultz, S. Watters, J. Thiel, T. Goggia. Measurer
   PS1 Science Consortium. 1.8-m Ritchey-Chrétien + CCD.
(T05) ATLAS-HKO, Haleakala  (N20.707573 W156.257010)  US/Hawaii.  Observers
   L. Denneau, A. Heinze, H. Weiland, J. Tonry, H. Flewelling, A.
   Fitzsimmons, D. Young, B. Stalder. Measurers L. Denneau, A. Heinze, J.
   Tonry. 0.5-m f/2.0 Schmidt + CCD.

Orbital elements:  A10gICS
   Perihelion 2029 Nov 17.800970 TT = 19:13:23 (JD 2462458.300970)
Epoch 2019 Oct 19.0 TT = JDT 2458775.5                        AutoNEOCP
M 180.25839147                      (J2000 ecliptic)
n   0.04880568     Peri.   90.61662
a   7.41576227     Node   182.25410
e   0.0281802      Incl.   52.43491
P  20.19           H   10.1     G   0.15   q 7.20678440  Q 7.62474013
From 7 observations 2019 Oct. 9-19; mean residual 0".50
Residuals in arcseconds: 
191009 T05  .42+  .96+    191009 T05  .39+  .38+    191019 F51  .09+  .00     
191009 T05  .18-  .04-    191019 F51  .07-  .05+    
191009 T05  .63-  1.3-    191019 F51  .02-  .05-    

Ephemerides (geocentric):
Date (UTC) HH   RA              Dec         delta   r     elong  mag
---- -- -- --  -------------   -----------  ------ ------ -----  ---
2019 10 21 03  06 43 22.694   -31 23 45.85  7.4472 7.6247  96.5 19.4
2019 10 21 04  06 43 22.760   -31 24 00.53  7.4469 7.6247  96.5 19.4
2019 10 21 05  06 43 22.824   -31 24 15.22  7.4465 7.6247  96.6 19.4
2019 10 21 06  06 43 22.888   -31 24 29.90  7.4461 7.6247  96.6 19.4
2019 10 21 07  06 43 22.950   -31 24 44.58  7.4457 7.6247  96.6 19.4
2019 10 21 08  06 43 23.012   -31 24 59.25  7.4453 7.6247  96.6 19.4
2019 10 21 09  06 43 23.072   -31 25 13.93  7.4450 7.6247  96.7 19.4
2019 10 21 10  06 43 23.132   -31 25 28.60  7.4446 7.6247  96.7 19.4
2019 10 21 11  06 43 23.190   -31 25 43.27  7.4442 7.6247  96.7 19.4
2019 10 21 12  06 43 23.247   -31 25 57.93  7.4438 7.6247  96.7 19.4
2019 10 21 13  06 43 23.303   -31 26 12.60  7.4434 7.6247  96.7 19.4
2019 10 21 14  06 43 23.358   -31 26 27.26  7.4431 7.6247  96.8 19.4
2019 10 21 15  06 43 23.412   -31 26 41.92  7.4427 7.6247  96.8 19.4
2019 10 21 16  06 43 23.465   -31 26 56.57  7.4423 7.6247  96.8 19.4
2019 10 21 17  06 43 23.517   -31 27 11.23  7.4419 7.6247  96.8 19.4
2019 10 21 18  06 43 23.568   -31 27 25.88  7.4415 7.6247  96.9 19.4
2019 10 21 19  06 43 23.618   -31 27 40.53  7.4412 7.6247  96.9 19.4
2019 10 21 20  06 43 23.667   -31 27 55.17  7.4408 7.6247  96.9 19.4
2019 10 21 21  06 43 23.715   -31 28 09.81  7.4404 7.6247  96.9 19.4
2019 10 21 22  06 43 23.761   -31 28 24.45  7.4400 7.6247  96.9 19.4
2019 10 21 23  06 43 23.807   -31 28 39.09  7.4397 7.6247  97.0 19.4
2019 10 22 00  06 43 23.851   -31 28 53.73  7.4393 7.6247  97.0 19.4
2019 10 22 01  06 43 23.895   -31 29 08.36  7.4389 7.6247  97.0 19.4
2019 10 22 02  06 43 23.937   -31 29 22.99  7.4385 7.6247  97.0 19.4
2019 10 22 03  06 43 23.979   -31 29 37.62  7.4381 7.6247  97.1 19.4
2019 10 22 04  06 43 24.019   -31 29 52.24  7.4378 7.6247  97.1 19.4
2019 10 22 05  06 43 24.058   -31 30 06.86  7.4374 7.6247  97.1 19.4
2019 10 22 06  06 43 24.096   -31 30 21.48  7.4370 7.6247  97.1 19.4
2019 10 22 07  06 43 24.134   -31 30 36.10  7.4366 7.6247  97.1 19.4
2019 10 22 08  06 43 24.170   -31 30 50.71  7.4363 7.6247  97.2 19.4
2019 10 22 09  06 43 24.205   -31 31 05.32  7.4359 7.6247  97.2 19.4
2019 10 22 10  06 43 24.239   -31 31 19.93  7.4355 7.6247  97.2 19.4
2019 10 22 11  06 43 24.271   -31 31 34.53  7.4351 7.6247  97.2 19.4
2019 10 22 12  06 43 24.303   -31 31 49.14  7.4347 7.6247  97.3 19.4
2019 10 22 13  06 43 24.334   -31 32 03.74  7.4344 7.6247  97.3 19.4
2019 10 22 14  06 43 24.364   -31 32 18.33  7.4340 7.6247  97.3 19.4
2019 10 22 15  06 43 24.393   -31 32 32.93  7.4336 7.6247  97.3 19.4
2019 10 22 16  06 43 24.420   -31 32 47.52  7.4332 7.6247  97.4 19.4
2019 10 22 17  06 43 24.447   -31 33 02.11  7.4329 7.6247  97.4 19.4
2019 10 22 18  06 43 24.472   -31 33 16.69  7.4325 7.6247  97.4 19.4
2019 10 22 19  06 43 24.497   -31 33 31.28  7.4321 7.6247  97.4 19.4
2019 10 22 20  06 43 24.520   -31 33 45.86  7.4317 7.6247  97.4 19.4
2019 10 22 21  06 43 24.542   -31 34 00.43  7.4313 7.6247  97.5 19.4
2019 10 22 22  06 43 24.563   -31 34 15.01  7.4310 7.6247  97.5 19.4
2019 10 22 23  06 43 24.584   -31 34 29.58  7.4306 7.6247  97.5 19.4
2019 10 23 00  06 43 24.603   -31 34 44.15  7.4302 7.6247  97.5 19.4
2019 10 23 01  06 43 24.621   -31 34 58.71  7.4298 7.6247  97.6 19.4
2019 10 23 02  06 43 24.638   -31 35 13.28  7.4295 7.6247  97.6 19.4